TimeCDT,TemperatureF,Dew PointF,Humidity,Sea Level PressureIn,VisibilityMPH,Wind Direction,Wind SpeedMPH,Gust SpeedMPH,PrecipitationIn,Events,Conditions,WindDirDegrees,DateUTC
12:53 AM,60.1,55.9,86,30.17,10.0,Calm,Calm,-,N/A,,Clear,0,2013-10-14 05:53:00
1:53 AM,61.0,57.0,87,30.18,10.0,NNE,4.6,-,N/A,,Clear,20,2013-10-14 06:53:00
2:53 AM,57.0,54.0,89,30.18,10.0,Calm,Calm,-,N/A,,Clear,0,2013-10-14 07:53:00
3:53 AM,57.9,55.0,90,30.18,9.0,Calm,Calm,-,N/A,,Clear,0,2013-10-14 08:53:00
4:53 AM,57.0,55.0,93,30.18,9.0,Calm,Calm,-,N/A,,Clear,0,2013-10-14 09:53:00
5:53 AM,55.9,54.0,93,30.19,6.0,Calm,Calm,-,N/A,,Clear,0,2013-10-14 10:53:00
6:53 AM,55.0,54.0,96,30.21,6.0,Calm,Calm,-,N/A,Fog,Shallow Fog,0,2013-10-14 11:53:00
7:53 AM,62.1,59.0,90,30.21,6.0,ENE,3.5,-,N/A,,Partly Cloudy,60,2013-10-14 12:53:00
8:53 AM,66.9,59.0,76,30.22,9.0,ENE,3.5,-,N/A,,Partly Cloudy,70,2013-10-14 13:53:00
9:53 AM,71.1,59.0,66,30.22,10.0,ESE,4.6,-,N/A,,Partly Cloudy,120,2013-10-14 14:53:00
10:53 AM,75.0,62.1,64,30.20,10.0,ESE,4.6,-,N/A,,Partly Cloudy,110,2013-10-14 15:53:00
11:53 AM,75.9,62.1,62,30.18,10.0,East,3.5,-,N/A,,Scattered Clouds,80,2013-10-14 16:53:00
12:53 PM,78.1,61.0,56,30.15,10.0,Calm,Calm,-,N/A,,Scattered Clouds,0,2013-10-14 17:53:00
1:53 PM,80.1,60.1,50,30.12,10.0,East,4.6,-,N/A,,Scattered Clouds,100,2013-10-14 18:53:00
2:53 PM,82.0,59.0,45,30.09,10.0,Calm,Calm,-,N/A,,Scattered Clouds,0,2013-10-14 19:53:00
3:53 PM,80.1,59.0,48,30.09,10.0,NNW,3.5,-,N/A,,Scattered Clouds,340,2013-10-14 20:53:00
4:53 PM,81.0,57.9,45,30.09,10.0,SSE,3.5,-,N/A,,Scattered Clouds,150,2013-10-14 21:53:00
5:53 PM,77.0,59.0,54,30.09,10.0,SE,4.6,-,N/A,,Scattered Clouds,130,2013-10-14 22:53:00
6:53 PM,72.0,60.1,66,30.09,10.0,SE,3.5,-,N/A,,Scattered Clouds,130,2013-10-14 23:53:00
7:53 PM,69.1,61.0,75,30.09,10.0,Calm,Calm,-,N/A,,Scattered Clouds,0,2013-10-15 00:53:00
8:53 PM,66.9,61.0,81,30.10,10.0,SSE,3.5,-,N/A,,Mostly Cloudy,150,2013-10-15 01:53:00
9:53 PM,66.0,61.0,84,30.11,10.0,ESE,4.6,-,N/A,,Mostly Cloudy,120,2013-10-15 02:53:00
10:53 PM,66.9,62.1,84,30.13,10.0,ESE,3.5,-,N/A,,Mostly Cloudy,110,2013-10-15 03:53:00
11:53 PM,66.0,61.0,84,30.12,10.0,SE,3.5,-,N/A,,Mostly Cloudy,130,2013-10-15 04:53:00